Location: Wiler
(46.4041°N, 7.7840°E)
Time: 07:51:29
(UTC+00:00)

STARLINK-1200 - Visible Passes

Search period start: 11 August 2020 00:00
Search period end: 21 August 2020 00:00
Orbit: 549 x 550 km, 53.0° (Epoch: 11 August)

Date Brightness Start Highest point End Pass type
(mag) Time Alt. Az. Time Alt. Az. Time Alt. Az.
11 Aug 5.2 19:43:14 10° WNW 19:47:03 35° N 19:50:53 10° ENE visible
11 Aug 4.9 21:23:27 10° WNW 21:27:20 37° NNE 21:29:02 26° ENE visible
11 Aug 5.6 23:03:04 10° WNW 23:04:40 22° WNW 23:04:40 22° WNW visible
12 Aug 5.2 19:37:54 10° WNW 19:41:40 33° N 19:45:28 10° ENE visible
12 Aug 4.7 21:17:59 10° NW 21:21:57 41° NNE 21:23:18 31° ENE visible
12 Aug 5.8 22:57:36 10° WNW 22:58:55 20° WNW 22:58:55 20° WNW visible
13 Aug 5.2 19:32:32 10° WNW 19:36:18 32° N 19:40:04 10° ENE visible
13 Aug 4.4 21:12:31 10° NW 21:16:32 46° NNE 21:17:37 37° ENE visible
13 Aug 6.0 22:52:09 10° WNW 22:53:14 17° WNW 22:53:14 17° WNW visible
14 Aug 5.2 19:27:10 10° WNW 19:30:56 32° N 19:34:42 10° ENE visible
14 Aug 4.1 21:07:02 10° NW 21:11:06 54° NNE 21:11:57 45° ENE visible
14 Aug 6.1 22:46:45 10° WNW 22:47:35 15° WNW 22:47:35 15° WNW visible
15 Aug 5.1 19:21:47 10° WNW 19:25:34 33° N 19:29:20 10° ENE visible
15 Aug 3.8 21:01:31 10° WNW 21:05:39 64° NNE 21:06:20 54° ENE visible
15 Aug 6.3 22:41:25 10° WNW 22:41:58 13° W 22:41:58 13° W visible
16 Aug 5.0 19:16:22 10° WNW 19:20:11 34° N 19:24:00 10° ENE visible
16 Aug 3.6 20:56:01 10° WNW 21:00:11 78° NNE 21:00:45 64° E visible
16 Aug 6.4 22:36:10 10° W 22:36:23 11° W 22:36:23 11° W visible
17 Aug 4.8 19:10:56 10° WNW 19:14:48 37° NNE 19:18:40 10° E visible
17 Aug 3.4 20:50:33 10° WNW 20:54:42 85° SSW 20:55:13 67° SE visible
18 Aug 4.6 19:05:28 10° NW 19:09:24 40° NNE 19:13:20 10° E visible
18 Aug 3.6 20:45:04 10° WNW 20:49:12 67° SW 20:49:42 59° S visible
19 Aug 4.4 18:59:59 10° NW 19:04:00 45° NNE 19:08:00 10° E visible
19 Aug 3.9 20:39:37 10° WNW 20:43:39 52° SW 20:44:15 47° S visible
20 Aug 4.3 20:34:13 10° WNW 20:38:06 40° SW 20:38:50 36° SSW visible
